Regional Weather Roundup
Issued by NWS Wilmington, NC

Home | Current Version | Previous Version | Text Only | Print | Product List | Glossary On
Versions: 1 2 3 4 5 6 7 8 9 10 11 12 13 14 15 16 17 18 19 20 21 22 23 24 25 26 27 28 29 30 31 32 33 34 35 36 37 38 39 40 41 42 43 44 45 46 47 48 49 50
000
ASUS42 KILM 281710
RWRILM
RWRILM
REGIONAL HOURLY WEATHER ROUNDUP
NATIONAL WEATHER SERVICE WILMINGTON NC
100 PM EDT MON JUL 28 2014

NOTE: "FAIR" INDICATES FEW OR NO CLOUDS BELOW 12,000 FEET WITH NO
SIGNIFICANT WEATHER AND/OR OBSTRUCTIONS TO VISIBILITY.

...............WFO WILMINGTON COUNTY WARNING AREA...............

......COASTAL NC AND SC COUNTIES......

CITY           SKY/WX    TMP DP  RH WIND       PRES   REMARKS
WILMINGTON     PTSUNNY   88  71  57 SW12      29.81F HX  94
SOUTHPORT      MOSUNNY   87  76  70 SW10      29.83S HX  97
N MYRTLE BEACH MOSUNNY   90  75  61 W9        29.82F HX 100
MYRTLE BEACH   MOSUNNY   91  75  59 SW9       29.83F HX 102

......INLAND NC AND SC COUNTIES.......

CITY           SKY/WX    TMP DP  RH WIND       PRES   REMARKS
LUMBERTON      MOSUNNY   89  71  55 W8        29.81F HX  95
ELIZABETHTOWN  PTSUNNY   88  70  55 W7        29.81F HX  93
WHITEVILLE     PTSUNNY   87  75  65 SW6       29.82F HX  96
FLORENCE       PTSUNNY   89  74  60 W12       29.82F HX  98
DARLINGTON     MOSUNNY   88  75  66 SW7       29.82F HX  97

....................REST OF NORTH CAROLINA......................

.........EASTERN NC.........

CITY           SKY/WX    TMP DP  RH WIND       PRES   REMARKS
CAPE HATTERAS  CLOUDY    84  76  76 SW9       29.79S HX  93
JACKSONVILLE   MOSUNNY   88  70  55 SW8       29.80F HX  92
MOREHEAD CITY  PTSUNNY   86  75  69 SW15      29.80F HX  95
KENANSVILLE    MOSUNNY   88  69  53 SW6       29.81F HX  91
NEW BERN       MOSUNNY   90  71  53 W7        29.80F HX  96
ELIZABETH CITY SUNNY     87  66  49 W17G24    29.73S

.........CENTRAL NC.........

CITY           SKY/WX    TMP DP  RH WIND       PRES   REMARKS
RALEIGH DURHAM MOSUNNY   84  62  47 NW9G21    29.81S
ROCKY MOUNT    MOSUNNY   86  64  47 W12G18    29.79S
ROANOKE RAPIDS NOT AVBL
FAYETTEVILLE   SUNNY     95  64  35 W14G22    29.79F HX  97
HOFFMAN        MOSUNNY   89  66  45 W10G21    29.83S HX  91

.........WESTERN NC.........

CITY           SKY/WX    TMP DP  RH WIND       PRES   REMARKS
CHARLOTTE      PTSUNNY   88  64  44 W10G20    29.85S
GREENSBORO     MOSUNNY   86  59  39 NW17G26   29.83S
HICKORY        NOT AVBL
BOONE          NOT AVBL
ASHEVILLE      NOT AVBL

.....................REST OF SOUTH CAROLINA.....................

.........EASTERN SC.........

CITY           SKY/WX    TMP DP  RH WIND       PRES   REMARKS
CHARLESTON     PTSUNNY   93  76  57 W12G22    29.87F HX 105
BEAUFORT MCAS  MOSUNNY   94  75  54 NW15      29.87F HX 105
HILTON HEAD    NOT AVBL

.........CENTRAL SC.........

CITY           SKY/WX    TMP DP  RH WIND       PRES   REMARKS
COLUMBIA       MOSUNNY   95  70  44 SW16G24   29.83F HX 101
ORANGEBURG     MOSUNNY   91  75  59 W14       29.86F HX 101
SUMTER SHAW    SUNNY     91  76  60 SW13G20   29.82F HX 103

.........WESTERN SC.........

CITY           SKY/WX    TMP DP  RH WIND       PRES   REMARKS
GREENVILLE     NOT AVBL
ROCK HILL      PTSUNNY   85  69  58 NW8       29.85F
ANDERSON       SUNNY     89  66  46 W12G25    29.88F HX  91
CLEMSON        NOT AVBL
GREENWOOD      MOSUNNY   91  65  41 W15G28    29.88F HX  93


...................COASTAL AND OFFSHORE REPORTS..................

................LOCAL PIERS AND NC RESERVE................


STATION/POSITION TIME  SKY/WX   TEMP    WIND        PRES    VSBY
                                AIR SEA DIR/SP/G
                 (UTC)          (F)     (DEG/KT/KT) (MB)    (MI)
JOHNY MRCER PIER 1700            89 83  280/  6/ 10 1009.2S
NC RESRV MASNBRO 1600            89     270/  5     1010.0S
OCEAN CREST PIER 1700            84 84  230/ 17/ 18 1009.0F
SPRINGMAID  PIER 1700            87 83  220/ 11/ 14 1010.2F


................COASTAL AND OFFSHORE BUOYS................


STATION/POSITION TIME  SKY/WX   TEMP    WIND        PRES    VSBY
                                AIR SEA DIR/SP/G
                 (UTC)          (F)     (DEG/KT/KT) (MB)    (MI)
DIMNDSHOAL 41025 1700                   VRB 17/ 19  1008.6R
WVE H/P(F/S)=  5/ 7 WND WVE H/P(F/S)=  5/ 7 SWL H/P/D(F/S/D)=  2/120/ 9

CAPE LOOKOUT     1600            83     240/ 10/ 13 1009.6R
ONSLOW BAY 41036 1700            83 82  230/ 14/ 16 1010.1F
WVE H/P(F/S)=  5/ 6 WND WVE H/P(F/S)=  3/ 5 SWL H/P/D(F/S/D)=  3/200/ 6

5 WRITEBCH 41038 1600            81 82  260/  8/  8   N/A
MASONBORO  41110 1700               83                N/A
WVE H/P(F/S)=  3/ 7 WND WVE H/P(F/S)=  3/ 7

WILM HARBR 41108 NOT AVBL
27WRITEBCH 41037 1600            80 82  260/ 16/ 19 1009.9F
FRYING PAN 41013 NOT AVBL
SUNST NRSH 41024 1600            85     240/ 14/ 16 1010.2F
CAPRS NRSH 41029 1600            86     260/ 16/ 19   N/A
EDISTO     41004 1700            84 83  220/ 17/ 19 1010.7F
WVE H/P(F/S)=  5/ 5 WND WVE H/P(F/S)=  5/ 5 SWL H/P/D(F/S/D)=  2/ 9



..........OFFSHORE BUOYS BEYOND 100 NM OFFSHORE...........
.....IN A TRIANGLE---HAT TO BERMUDA TO BAHAMAS TO HAT.....


STATION/POSITION TIME  SKY/WX   TEMP    WIND        PRES    VSBY
                                AIR SEA DIR/SP/G
                 (UTC)          (F)     (DEG/KT/KT) (MB)    (MI)
150E HAT   41001 NOT AVBL
W BERMUDA  41048 1559            79 82  200/ 17/ 21 1017.5
WVE H/P(F/S)=  6/ 7 WND WVE H/P(F/S)=  7/ 7

ATLANTIC S 41049 1554            82 84   90/  8/ 10 1021.4
WVE H/P(F/S)=  3/ 8 WND WVE H/P(F/S)=  2/ 4 SWL H/P/D(F/S/D)=  3/130/ 8

E BAHAMAS  41046 1628            75 84  350/ 16/ 19 1021.0R
WVE H/P(F/S)=  4/ 8 WND WVE H/P(F/S)=  2/ 6 SWL H/P/D(F/S/D)=  3/120/ 8

NE BAHAMAS 41047 1635            83 86  240/  6/  6 1019.4F
WVE H/P(F/S)=  3/ 8 SWL H/P/D(F/S/D)=  3/120/ 8

120E CANVRL41010 1700            84 85  250/ 14/ 16 1016.9F
WVE H/P(F/S)=  4/ 5 WND WVE H/P(F/S)=  3/ 5 SWL H/P/D(F/S/D)=  2/130/ 9


END



USA.gov is the U.S. government's official web portal to all federal, state and local government web resources and services.